NOAA NWS Hourly Roundups by Site

Regional Weather Roundup for Detroit, MI

To Select Another Site Choose from List

Select Site:  

208
ASUS43 KDTX 202010
RWRMI
MICHIGAN HOURLY REGIONAL WEATHER ROUNDUP
NATIONAL WEATHER SERVICE DETROIT/PONTIAC MI
400 PM EDT THU JUN 20 2024

NOTE: "FAIR" INDICATES FEW OR NO CLOUDS BELOW 12,000 FEET WITH NO
SIGNIFICANT WEATHER AND/OR OBSTRUCTION TO VISIBILITY.

MIZ047>049-052>055-059>063-066>070-074>076-081>083-202100-
SOUTHEAST LOWER MICHIGAN

CITY           SKY/WX    TMP DP  RH WIND       PRES   REMARKS
ADRIAN         SUNNY     89  71  55 SE5       30.25F HX  95  TC  32
ALMA           PTSUNNY   78  64  61 NE8       30.29S TC  26
ANN ARBOR      MOSUNNY   90  72  55 SW5       30.23F HX  97  TC  32
BAD AXE        SUNNY     75  61  61 NE7       30.30F TC  24
CARO           MOSUNNY   79  70  74 NE5       30.28F TC  26
DETROIT CITY   CLOUDY    80  68  66 N15G23    30.28R THUNDER TC  27
DETROIT        PTSUNNY   84  73  69 E10G20    30.23F HX  90  TC  29
FLINT          PTSUNNY   85  72  65 N7        30.26F HX  91  TC  29
GROSSE ILE     MOSUNNY   86  70  59 SE5       30.23F HX  90  TC  30
HILLSDALE      MOSUNNY   91  54  29 CALM      30.26F TC  33
HOWELL         HVY RAIN  80  74  80 N6        30.26F TC  27

CITY           SKY/WX    TMP DP  RH WIND       PRES   REMARKS
JACKSON        MOSUNNY   89  70  53 VRB5      30.24F HX  94  TC  32
LAMBERTVILLE   MOSUNNY   87  75  68 CALM      30.23F HX  96  TC  30
LANSING        MOSUNNY   82  73  74 NE10      30.25F TC  28
LAPEER         MOSUNNY   83  71  65 E6        30.28F TC  29
MASON          MOSUNNY   86  72  62 NE8       30.24F HX  93  TC  30
MONROE         MOSUNNY   89  74  60 S9        30.22F HX  97  TC  32
MT. CLEMENS    TSTM      75  68  78 E3        30.27R TC  24
PONTIAC        CLOUDY    79  70  74 E10       30.27R TC  26
PORT HOPE        N/A     68  61  78 VRB5      30.31F TC  20
PORT HURON     PTSUNNY   72  64  78 N5        30.28F TC  22
TRI CITIES     PTSUNNY   79  62  56 NE13      30.29F TC  26
MIDLAND        NOT AVBL
TROY           CLOUDY    74  68  82 E9G21     30.30S TC  23
SAGINAW HB     MOSUNNY   79  68  69 NE10      30.28F TC  26
$$
MIZ043>046-050>051-056>058-064>065-071>073-077>080-202100-
SOUTHWEST LOWER MICHIGAN

CITY           SKY/WX    TMP DP  RH WIND       PRES   REMARKS
BATTLE CREEK   MOSUNNY   89  70  53 NW5       30.25F HX  94  TC  32
BENTON HARBOR  SUNNY     81  70  69 NW7       30.26F TC  27
BIG RAPIDS     MOSUNNY   82  68  61 E3        30.27F TC  28
COLDWATER      SUNNY     91  71  51 W3        30.25F HX  97  TC  33
FREMONT        PTSUNNY   84  71  64 E5        30.25F TC  29
HOLLAND        MOSUNNY   88  69  53 W13       30.26F HX  92  TC  31
GRAND RAPIDS   PTSUNNY   81  73  76 E8        30.25F TC  27
IONIA          MOSUNNY   82  76  81 CALM      30.26F HX  90  TC  28
KALAMAZOO      MOSUNNY   92  68  45 SW9       30.24F HX  96  TC  33
LUDINGTON      CLOUDY    78  69  74 CALM      30.27F TC  26
MARSHALL       MOSUNNY   89  67  47 W3        30.24F HX  92  TC  32
MOUNT PLEASANT PTSUNNY   81  65  59 E7        30.28S TC  27
MUSKEGON       PTSUNNY   87  68  52 W10       30.25F HX  90  TC  31
SOUTH HAVEN    SUNNY     82  72  71 NW5       30.26  TC  28
$$
MIZ016>042-202100-
NORTHERN LOWER MICHIGAN

CITY           SKY/WX    TMP DP  RH WIND       PRES   REMARKS
ALPENA         CLOUDY    69  62  78 VRB3      30.33F TC  21
BEAVER ISLAND  CLOUDY    74  57  55 NE5       30.33F TC  23
BELLAIRE       RAIN      69  63  79 N3        30.33S TC  21
CADILLAC       PTSUNNY   75  66  73 VRB2      30.31F TC  24
CHARLEVOIX     CLOUDY    65  58  77 N6        30.34F TC  18
CHEBOYGAN      CLOUDY    70  59  68 NE5       30.34S HAZE    TC  21
FRANKFORT      PTSUNNY   71  61  70 N8        30.32S TC  21
GAYLORD        CLOUDY    70  62  76 NE8       30.34F TC  21
GRAYLING       CLOUDY    76  65  68 CALM      30.31F TC  24
HARBOR SPRINGS CLOUDY    66  59  77 SW3       30.34R TC  19
MANISTEE       PTSUNNY   77  70  79 NW9       30.29S TC  25
OSCODA         LGT RAIN  67  59  77 NE9       30.32F TC  19
PELLSTON       CLOUDY    73  60  63 E5        30.34S TC  23
ROGERS CITY    PTSUNNY   66  56  70 CALM      30.35F TC  19
TRAVERSE CITY  CLOUDY    66  62  87 NE5       30.31F TC  19
$$
MIZ007>008-015-202100-
EASTERN UPPER MICHIGAN

CITY           SKY/WX    TMP DP  RH WIND       PRES   REMARKS
KINROSS        MOSUNNY   75  61  61 NE7       30.34S TC  24
MACKINAC ISLAN CLOUDY    70  57  62 SE5       30.34F TC  21
NEWBERRY       MOSUNNY   78  54  43 NE7       30.34S TC  25
S. S. MARIE    SUNNY     77  61  57 W5        30.32F TC  25
$$
MIZ004>006-011>014-085-202100-
CENTRAL UPPER MICHIGAN

CITY           SKY/WX    TMP DP  RH WIND       PRES   REMARKS
MANISTIQUE     CLOUDY    70  56  61 S6        30.33F TC  21
ESCANABA       CLOUDY    67  58  72 SE8       30.34S TC  19
MENOMINEE      CLOUDY    68  54  60 VRB6      30.35F TC  20
SAWYER-GWINN   CLOUDY    61  50  67 NE7       30.38F TC  16
MUNISING         N/A     57  50  77 NE6       30.36F TC  14
$$
MIZ001>003-009>011-084-202100-
WESTERN UPPER MICHIGAN

CITY           SKY/WX    TMP DP  RH WIND       PRES   REMARKS
IRON MOUNTAIN  CLOUDY    72  48  42 NE6       30.34F TC  22
HOUGHTON       CLOUDY    64  49  57 SE8       30.39F TC  18
COPPER HARBOR    N/A     58  51  78 CALM      30.41S TC  14
IRONWOOD       CLOUDY    64  55  72 VRB3      30.39S TC  18
$$

ABBREVIATIONS USED IN REMARKS
   TC - TEMPERATURE IN CELSIUS
  WCI - WIND CHILL INDEX
   HX - HEAT INDEX
  VSB - VISIBILITY




 

View Past Reports for Detroit, MI.

Products Courtesy of NOAA-NWS
NWS Information Parsing Script by Ken True at Saratoga Weather - Script by SE Lincoln Weather.